Location: ????????
(55.5667°N, 37.5833°E)
Time: 15:16:41
(UTC+00:00)

USA 234 - Pass Details

Date: 14 April 2026
Orbit: 1102 x 1106 km, 123.0° (Epoch: 4 January)

Event Time Altitude Azimuth Distance (km) Brightness Sun altitude
Rises 22:20:53 0° 114° (ESE) 3,915 6.1 -23.9°
Reaches altitude 10° 22:23:22 10° 116° (ESE) 2,959 5.4 -23.8°
Maximum altitude 22:29:55 78° 202° (SSW) 1,130 3.1 -23.6°
Drops below altitude 10° 22:36:30 10° 290° (WNW) 2,969 5.5 -23.3°
Sets 22:39:00 0° 292° (WNW) 3,929 6.2 -23.2°
